Location: Camps Bay
(33.9517°S, 18.3844°E)
Time: 21:47:51
(UTC+00:00)

Okean 2 - Pass Details

Date: 18 January 2020
Orbit: 561 x 576 km, 82.5° (Epoch: 27 February)

Event Time Altitude Azimuth Distance (km) Brightness Sun altitude
Exits shadow 01:55:53 29° 22° (NNE) 1,065 4.5 -20.7°
Maximum altitude 01:57:44 55° 86° (E) 705 4.0 -20.4°
Drops below altitude 10° 02:01:53 10° 164° (SSE) 1,915 6.9 -19.8°
Sets 02:04:07 0° 168° (SSE) 2,821 7.9 -19.5°
